CW1795 Weather Reports


Display with metric or nautical units.
time (UTC)temp
F
wind
direction
speed
MPH
gust
MPH
rain 1hr
in
rain 24hr
in
rain mn
in
humidity
%
barometer
mb
20170820060005 59 136 2.0 3.0 0.00 0.00 0.00 50 1026.6
20170820054504 59 142 1.0 3.0 0.00 0.00 0.00 51 1026.6
20170820054005 59 141 3.0 7.0 0.00 0.00 0.00 51 1026.6
20170820053504 59 126 5.0 7.0 0.00 0.00 0.00 52 1026.6
20170820053006 59 171 3.0 7.0 0.00 0.00 0.00 52 1026.6
20170820051504 61 144 1.0 2.0 0.00 0.00 0.00 51 1026.3
20170820051006 61 144 2.0 3.0 0.00 0.00 0.00 50 1026.3
20170820050504 61 144 1.0 1.0 0.00 0.00 0.00 49 1026.3
20170820050005 61 144 0.0 2.0 0.00 0.00 0.00 48 1026.4
20170820044504 62 144 2.0 3.0 0.00 0.00 0.00 46 1026.3
20170820044005 63 144 4.0 7.0 0.00 0.00 0.00 46 1026.3
20170820043005 64 248 3.0 3.0 0.00 0.00 0.00 44 1026.3
20170820041504 65 250 1.0 9.0 0.00 0.00 0.00 41 1026.3
20170820041009 65 160 0.0 2.0 0.00 0.00 0.00 42 1026.3
20170820040504 65 161 0.0 1.0 0.00 0.00 0.00 41 1026.2
20170820040005 66 161 0.0 7.0 0.00 0.00 0.00 40 1026.3
20170820034504 68 190 3.0 3.0 0.00 0.00 0.00 36 1026.0
20170820034005 68 244 0.0 1.0 0.00 0.00 0.00 35 1026.0
20170820033504 69 244 1.0 7.0 0.00 0.00 0.00 34 1026.1
20170820033005 69 241 5.0 8.0 0.00 0.00 0.00 35 1026.1
20170820031504 71 267 1.0 2.0 0.00 0.00 0.00 32 1025.9
20170820031005 71 267 0.0 1.0 0.00 0.00 0.00 31 1025.8
20170820030504 71 267 0.0 3.0 0.00 0.00 0.00 30 1025.8
20170820030005 72 267 0.0 6.0 0.00 0.00 0.00 30 1025.7
20170820024505 72 322 1.0 2.0 0.00 0.00 0.00 30 1025.5
20170820024005 72 322 1.0 6.0 0.00 0.00 0.00 30 1025.4
20170820023504 73 322 6.0 7.0 0.00 0.00 0.00 30 1025.2
20170820023006 73 311 2.0 7.0 0.00 0.00 0.00 29 1025.2
20170820021504 74 311 2.0 6.0 0.00 0.00 0.00 28 1024.6
20170820021005 74 315 6.0 9.0 0.00 0.00 0.00 28 1024.6
20170820020504 74 313 7.0 9.0 0.00 0.00 0.00 28 1024.6
20170820020005 75 267 4.0 9.0 0.00 0.00 0.00 29 1024.8
20170820014504 76 321 5.0 10.0 0.00 0.00 0.00 29 1024.7
20170820014005 77 307 7.0 10.0 0.00 0.00 0.00 28 1024.7
20170820013503 77 282 6.0 16.0 0.00 0.00 0.00 27 1024.6
20170820013005 78 290 11.0 24.0 0.00 0.00 0.00 27 1024.6
20170820011504 85 264 2.0 10.0 0.00 0.00 0.00 25 1024.4
20170820011005 85 248 3.0 3.0 0.00 0.00 0.00 25 1024.4
20170820010504 85 248 4.0 3.0 0.00 0.00 0.00 24 1024.4
20170820010005 85 30 0.0 3.0 0.00 0.00 0.00 22 1024.3
20170820004504 85 30 2.0 3.0 0.00 0.00 0.00 21 1024.3
20170820004005 85 30 3.0 6.0 0.00 0.00 0.00 22 1024.2
20170820003505 85 37 2.0 7.0 0.00 0.00 0.00 22 1024.2
20170820003005 85 42 5.0 9.0 0.00 0.00 0.00 21 1024.2
20170820001504 86 32 5.0 6.0 0.00 0.00 0.00 22 1024.2
20170820001005 86 35 4.0 10.0 0.00 0.00 0.00 22 1024.2
20170820000505 86 6 9.0 9.0 0.00 0.00 0.00 23 1024.2
20170820000007 87 18 6.0 9.0 0.00 0.00 0.00 22 1024.3
20170819234504 87 63 8.0 7.0 0.00 0.00 0.00 20 1024.4
20170819234005 87 49 5.0 7.0 0.00 0.00 0.00 22 1024.4
20170819233504 86 56 5.0 7.0 0.00 0.00 0.00 22 1024.4
20170819233005 86 45 6.0 10.0 0.00 0.00 0.00 22 1024.5
20170819231505 86 3 4.0 6.0 0.00 0.00 0.00 22 1024.4
20170819231006 86 4 7.0 9.0 0.00 0.00 0.00 21 1024.5
20170819230504 86 17 4.0 6.0 0.00 0.00 0.00 22 1024.5
20170819230005 86 17 1.0 7.0 0.00 0.00 0.00 21 1024.6
20170819224505 86 330 1.0 3.0 0.00 0.00 0.00 22 1024.8
20170819224005 86 330 5.0 6.0 0.00 0.00 0.00 22 1024.8
20170819223505 87 330 8.0 6.0 0.00 0.00 0.00 22 1024.9
20170819223005 87 329 1.0 6.0 0.00 0.00 0.00 23 1024.9
20170819221505 87 343 3.0 6.0 0.00 0.00 0.00 22 1025.0
20170819221005 87 332 2.0 7.0 0.00 0.00 0.00 23 1024.9
20170819220505 87 342 3.0 9.0 0.00 0.00 0.00 23 1025.1
20170819220005 87 341 5.0 13.0 0.00 0.00 0.00 23 1025.3
20170819214505 87 358 10.0 10.0 0.00 0.00 0.00 22 1025.4
20170819214005 86 32 9.0 9.0 0.00 0.00 0.00 21 1025.3
20170819213504 86 10 1.0 6.0 0.00 0.00 0.00 22 1025.4
20170819213007 85 9 1.0 7.0 0.00 0.00 0.00 22 1025.5
20170819211505 85 47 6.0 9.0 0.00 0.00 0.00 22 1025.6
20170819211005 85 48 3.0 9.0 0.00 0.00 0.00 21 1025.6
20170819210505 85 61 5.0 6.0 0.00 0.00 0.00 21 1025.7
20170819210008 85 63 11.0 10.0 0.00 0.00 0.00 21 1025.7
20170819204505 85 18 3.0 10.0 0.00 0.00 0.00 22 1025.7
20170819204005 85 48 2.0 9.0 0.00 0.00 0.00 21 1025.8
20170819203505 85 79 8.0 10.0 0.00 0.00 0.00 20 1025.9
20170819203006 86 59 10.0 13.0 0.00 0.00 0.00 21 1025.9
20170819201504 85 34 6.0 9.0 0.00 0.00 0.00 22 1026.0
20170819201005 85 16 10.0 10.0 0.00 0.00 0.00 22 1026.0
20170819200505 85 67 1.0 3.0 0.00 0.00 0.00 21 1026.1
20170819200005 85 68 7.0 9.0 0.00 0.00 0.00 21 1026.1
20170819194505 85 59 10.0 9.0 0.00 0.00 0.00 20 1026.2
20170819194005 85 56 5.0 6.0 0.00 0.00 0.00 21 1026.4
20170819193505 85 69 3.0 9.0 0.00 0.00 0.00 20 1026.4
20170819193006 85 56 7.0 16.0 0.00 0.00 0.00 21 1026.4
20170819191505 85 49 2.0 7.0 0.00 0.00 0.00 20 1026.7
20170819191005 85 65 7.0 9.0 0.00 0.00 0.00 21 1026.6
20170819190505 84 93 6.0 9.0 0.00 0.00 0.00 22 1026.7
20170819190005 84 53 9.0 13.0 0.00 0.00 0.00 23 1026.7
20170819184505 83 54 12.0 14.0 0.00 0.00 0.00 24 1026.8
20170819184005 83 26 9.0 10.0 0.00 0.00 0.00 22 1026.9
20170819183504 83 22 6.0 9.0 0.00 0.00 0.00 24 1026.9
20170819183005 82 54 13.0 13.0 0.00 0.00 0.00 22 1027.1
20170819181505 82 53 13.0 13.0 0.00 0.00 0.00 24 1027.0
20170819181005 82 62 14.0 13.0 0.00 0.00 0.00 24 1027.1
20170819180504 82 46 10.0 10.0 0.00 0.00 0.00 24 1027.1
20170819180005 82 39 12.0 14.0 0.00 0.00 0.00 24 1027.2
20170819174504 82 67 5.0 9.0 0.00 0.00 0.00 25 1027.4
20170819174005 82 53 8.0 13.0 0.00 0.00 0.00 24 1027.4
20170819173504 83 30 9.0 13.0 0.00 0.00 0.00 25 1027.4
20170819173006 83 37 10.0 14.0 0.00 0.00 0.00 26 1027.4
20170819171505 84 28 13.0 14.0 0.00 0.00 0.00 26 1027.5
20170819171005 84 62 13.0 13.0 0.00 0.00 0.00 25 1027.5
20170819170505 84 45 8.0 14.0 0.00 0.00 0.00 26 1027.5
20170819170006 83 46 7.0 10.0 0.00 0.00 0.00 26 1027.6
20170819164505 82 355 6.0 10.0 0.00 0.00 0.00 27 1027.6
20170819164005 81 5 8.0 10.0 0.00 0.00 0.00 28 1027.5
20170819163509 81 323 10.0 13.0 0.00 0.00 0.00 28 1027.5
20170819163006 81 0 14.0 13.0 0.00 0.00 0.00 27 1027.5
20170819161504 80 353 8.0 9.0 0.00 0.00 0.00 29 1027.6
20170819161006 80 333 10.0 10.0 0.00 0.00 0.00 28 1027.6
20170819160504 80 339 15.0 13.0 0.00 0.00 0.00 28 1027.7
20170819160005 79 345 16.0 13.0 0.00 0.00 0.00 29 1027.8
20170819154505 77 283 6.0 7.0 0.00 0.00 0.00 35 1027.4
20170819154005 76 196 1.0 2.0 0.00 0.00 0.00 38 1027.7
20170819153505 75 200 0.0 1.0 0.00 0.00 0.00 43 1027.7
20170819153006 73 200 0.0 2.0 0.00 0.00 0.00 41 1027.7
20170819151504 70 200 1.0 3.0 0.00 0.00 0.00 48 1028.0
20170819151005 69 200 2.0 5.0 0.00 0.00 0.00 51 1028.0
20170819150504 69 200 2.0 5.0 0.00 0.00 0.00 53 1028.0
20170819150012 68 200 5.0 7.0 0.00 0.00 0.00 52 1028.0
20170819144504 65 200 5.0 5.0 0.00 0.00 0.00 54 1028.0
20170819144006 65 200 3.0 5.0 0.00 0.00 0.00 52 1027.8
20170819143505 65 200 6.0 7.0 0.00 0.00 0.00 53 1027.8
20170819143006 64 200 5.0 7.0 0.00 0.00 0.00 53 1027.8
20170819141505 62 214 0.0 0.0 0.00 0.00 0.00 57 1027.9
20170819141005 61 214 0.0 2.0 0.00 0.00 0.00 56 1027.9
20170819140504 61 214 1.0 3.0 0.00 0.00 0.00 59 1027.9
20170819140005 60 213 2.0 3.0 0.00 0.00 0.00 59 1027.7
20170819134505 58 213 0.0 1.0 0.00 0.00 0.00 57 1027.5
20170819134005 58 213 0.0 2.0 0.00 0.00 0.00 58 1027.4
20170819133504 58 213 0.0 0.0 0.00 0.00 0.00 59 1027.4
20170819133006 57 213 0.0 5.0 0.00 0.00 0.00 58 1027.4
20170819131505 57 211 1.0 2.0 0.00 0.00 0.00 57 1027.4
20170819131006 57 211 0.0 0.0 0.00 0.00 0.00 57 1027.4
20170819130504 57 211 0.0 2.0 0.00 0.00 0.00 58 1027.4
20170819130005 57 211 1.0 6.0 0.00 0.00 0.00 58 1027.0
20170819124504 58 4 4.0 3.0 0.00 0.00 0.00 55 1027.1
20170819124005 58 0 2.0 2.0 0.00 0.00 0.00 54 1027.2
20170819123505 59 0 0.0 2.0 0.00 0.00 0.00 52 1027.1
20170819123006 59 0 0.0 3.0 0.00 0.00 0.00 51 1027.3
20170819121505 60 0 0.0 2.0 0.00 0.00 0.00 49 1027.1
20170819121005 60 0 2.0 3.0 0.00 0.00 0.00 49 1027.1
20170819120504 60 0 1.0 6.0 0.00 0.00 0.00 47 1027.1
20170819120006 60 0 3.0 7.0 0.00 0.00 0.00 47 1026.9
20170819114505 60 10 3.0 7.0 0.00 0.00 0.00 46 1026.7
20170819114005 61 11 6.0 7.0 0.00 0.00 0.00 47 1026.7
20170819113504 61 10 7.0 6.0 0.00 0.00 0.00 46 1026.7
20170819113006 62 10 5.0 6.0 0.00 0.00 0.00 45 1026.7
20170819111505 63 24 0.0 2.0 0.00 0.00 0.00 43 1026.7
20170819111005 63 24 0.0 2.0 0.00 0.00 0.00 43 1026.7
20170819110505 63 24 1.0 6.0 0.00 0.00 0.00 43 1026.7
20170819110005 64 22 3.0 6.0 0.00 0.00 0.00 42 1026.4
20170819104505 64 20 6.0 10.0 0.00 0.00 0.00 39 1026.0
20170819104005 65 337 3.0 6.0 0.00 0.00 0.00 39 1026.0
20170819103504 65 337 7.0 7.0 0.00 0.00 0.00 39 1026.0
20170819103006 65 5 3.0 9.0 0.00 0.00 0.00 39 1025.9
20170819101505 66 211 6.0 7.0 0.00 0.00 0.00 37 1025.8
20170819101006 66 202 7.0 10.0 0.00 0.00 0.00 37 1025.8
20170819100504 66 204 5.0 8.0 0.00 0.00 0.00 38 1025.7
20170819100006 66 202 6.0 10.0 0.00 0.00 0.00 37 1025.7
20170819094505 66 210 10.0 10.0 0.00 0.00 0.00 38 1025.9
20170819094006 66 207 7.0 9.0 0.00 0.00 0.00 38 1025.8
20170819093506 65 202 10.0 12.0 0.00 0.00 0.00 38 1025.8
20170819093006 65 213 11.0 12.0 0.00 0.00 0.00 39 1025.8
20170819091005 65 208 11.0 10.0 0.00 0.00 0.00 40 1025.9
20170819090504 65 207 10.0 10.0 0.00 0.00 0.00 39 1025.9
20170819090006 64 210 10.0 12.0 0.00 0.00 0.00 39 1025.9
20170819084505 64 200 7.0 9.0 0.00 0.00 0.00 42 1025.9
20170819084005 64 208 7.0 8.0 0.00 0.00 0.00 42 1026.0
20170819083505 64 209 7.0 9.0 0.00 0.00 0.00 42 1026.0
20170819083006 64 205 9.0 9.0 0.00 0.00 0.00 43 1026.0
20170819081505 64 212 9.0 10.0 0.00 0.00 0.00 41 1026.1
20170819081006 64 204 7.0 9.0 0.00 0.00 0.00 42 1026.3
20170819080504 64 207 5.0 9.0 0.00 0.00 0.00 43 1026.3
20170819080006 64 206 4.0 8.0 0.00 0.00 0.00 42 1026.0
20170819074505 63 197 7.0 8.0 0.00 0.00 0.00 43 1026.1
20170819074005 64 196 5.0 8.0 0.00 0.00 0.00 44 1026.1
20170819073505 64 193 5.0 7.0 0.00 0.00 0.00 43 1026.1
20170819073006 65 193 4.0 9.0 0.00 0.00 0.00 43 1026.4
20170819071505 66 205 5.0 8.0 0.00 0.00 0.00 40 1026.5
20170819071006 66 208 8.0 9.0 0.00 0.00 0.00 39 1026.6
20170819070505 66 201 5.0 8.0 0.00 0.00 0.00 40 1026.4
20170819070005 66 208 9.0 12.0 0.00 0.00 0.00 39 1026.4
20170819064504 66 205 7.0 9.0 0.00 0.00 0.00 41 1026.5
20170819064005 66 201 8.0 12.0 0.00 0.00 0.00 40 1026.5
20170819063505 66 210 6.0 9.0 0.00 0.00 0.00 40 1026.6
20170819063006 66 207 9.0 12.0 0.00 0.00 0.00 39 1026.6
20170819061505 67 213 10.0 10.0 0.00 0.00 0.00 40 1026.5
20170819061006 67 211 10.0 13.0 0.00 0.00 0.00 39 1026.6
20170819060505 67 212 10.0 12.0 0.00 0.00 0.00 39 1026.6